Location: Newark
(0.5481°S, 166.9394°E)
Time: 19:33:47
(UTC+00:00)

ISS - Visible Passes

Search period start: 16 October 2019 00:00
Search period end: 26 October 2019 00:00
Orbit: 411 x 421 km, 51.6° (Epoch: 16 October)

Date Brightness Start Highest point End Pass type
(mag) Time Alt. Az. Time Alt. Az. Time Alt. Az.
16 Oct -3.6 07:02:04 10° NNW 07:05:17 52° NE 07:08:32 10° SE visible
17 Oct -0.4 07:52:07 10° WSW 07:53:19 12° SW 07:54:32 10° SSW visible
17 Oct -0.7 17:50:07 10° SSE 17:52:20 16° SE 17:54:32 10° E visible
18 Oct -1.3 07:01:59 10° WNW 07:04:47 25° SW 07:07:36 10° S visible
19 Oct -3.7 17:48:28 10° SW 17:51:50 85° SE 17:55:12 10° NE visible
20 Oct -2.0 17:01:58 23° S 17:03:20 32° SE 17:06:23 10° ENE visible
21 Oct -2.2 17:50:43 17° WNW 17:51:20 18° NW 17:53:41 10° N visible
